When you browse on this site, cookies collect data to enhance your experience and personalize the content and advertising you see.
Visit our Privacy Policy to learn more. By continuing to use the site, you agree to this use of cookies and data.
  • In Austria
  • List of Countries
  • For 7 days
  • Water Temperature
  • Weather Map
  • News
  • Weather Widgets
  • user-avatar
    Login

    Hourly Weather La-Plata

    Today, 3 June, Wednesday

    Time Temperature Precipitation Wind Pressure Humidity
    00:00 +9°C° 0 mm 3 mps 763 mmHg 71%
    01:00 +9°C° 0 mm 2 mps 764 mmHg 71%
    02:00 +8°C° 0 mm 2 mps 764 mmHg 71%
    03:00 +8°C° 0 mm 2 mps 764 mmHg 72%
    04:00 +8°C° 0 mm 2 mps 764 mmHg 72%
    05:00 +8°C° 0 mm 1 mps 764 mmHg 73%
    06:00 +9°C° 0 mm 1 mps 764 mmHg 71%
    07:00 +9°C° 0 mm 1 mps 765 mmHg 70%
    08:00 +9°C° 0 mm 1 mps 765 mmHg 68%
    09:00 +11°C° 0 mm 1 mps 766 mmHg 63%
    10:00 +12°C° 0 mm 1 mps 766 mmHg 57%
    11:00 +14°C° 0 mm 1 mps 767 mmHg 52%
    12:00 +14°C° 0 mm 1 mps 767 mmHg 50%
    13:00 +15°C° 0 mm 1 mps 767 mmHg 48%
    14:00 +15°C° 0 mm 1 mps 766 mmHg 47%
    15:00 +14°C° 0 mm 1 mps 767 mmHg 53%
    16:00 +13°C° 0 mm 1 mps 767 mmHg 59%
    17:00 +12°C° 0 mm 1 mps 767 mmHg 65%
    18:00 +10°C° 0 mm 2 mps 767 mmHg 69%
    19:00 +10°C° 0 mm 2 mps 767 mmHg 72%
    20:00 +9°C° 0 mm 3 mps 768 mmHg 76%
    21:00 +9°C° 0 mm 3 mps 768 mmHg 80%
    22:00 +9°C° 0 mm 3 mps 768 mmHg 84%
    23:00 +8°C° 0 mm 3 mps 768 mmHg 89%

    Tomorrow, 4 June, Thursday

    Time Temperature Precipitation Wind Pressure Humidity
    00:00 +8°C° 0 mm 2 mps 768 mmHg 91%
    01:00 +8°C° 0 mm 2 mps 768 mmHg 93%
    02:00 +9°C° 0 mm 1 mps 768 mmHg 95%
    03:00 +9°C° 0 mm 1 mps 768 mmHg 93%
    04:00 +9°C° 0 mm 1 mps 768 mmHg 92%
    05:00 +9°C° 0 mm 1 mps 767 mmHg 91%
    06:00 +9°C° 0 mm 1 mps 768 mmHg 89%
    07:00 +10°C° 0 mm 1 mps 768 mmHg 87%
    08:00 +10°C° 0 mm 1 mps 768 mmHg 85%
    09:00 +12°C° 0 mm 1 mps 768 mmHg 75%
    10:00 +13°C° 0 mm 1 mps 768 mmHg 65%
    11:00 +15°C° 0 mm 1 mps 768 mmHg 55%
    12:00 +16°C° 0 mm 1 mps 768 mmHg 53%
    13:00 +16°C° 0 mm 2 mps 767 mmHg 51%
    14:00 +17°C° 0 mm 2 mps 766 mmHg 49%
    15:00 +15°C° 0 mm 2 mps 766 mmHg 56%
    16:00 +12°C° 0 mm 3 mps 766 mmHg 64%
    17:00 +11°C° 0 mm 3 mps 766 mmHg 71%
    18:00 +10°C° 0 mm 3 mps 766 mmHg 74%
    19:00 +10°C° 0 mm 3 mps 766 mmHg 77%
    20:00 +9°C° 0 mm 3 mps 766 mmHg 80%
    21:00 +9°C° 0 mm 3 mps 766 mmHg 82%
    22:00 +9°C° 0 mm 3 mps 766 mmHg 84%
    23:00 +9°C° 0 mm 3 mps 765 mmHg 86%

    Day after tomorrow, 5 June, Friday

    Time Temperature Precipitation Wind Pressure Humidity
    00:00 +9°C° 0 mm 3 mps 765 mmHg 87%
    01:00 +9°C° 0 mm 3 mps 765 mmHg 88%
    02:00 +9°C° 0 mm 3 mps 765 mmHg 90%
    03:00 +9°C° 0 mm 3 mps 764 mmHg 91%
    04:00 +9°C° 0 mm 3 mps 764 mmHg 91%
    05:00 +8°C° 0 mm 4 mps 764 mmHg 92%
    06:00 +10°C° 0 mm 4 mps 764 mmHg 90%
    07:00 +11°C° 0 mm 4 mps 763 mmHg 87%
    08:00 +10°C° 0 mm 5 mps 763 mmHg 84%
    09:00 +13°C° 0 mm 5 mps 763 mmHg 81%
    10:00 +14°C° 0 mm 5 mps 763 mmHg 77%
    11:00 +15°C° 0 mm 6 mps 763 mmHg 73%
    12:00 +15°C° 0 mm 6 mps 762 mmHg 73%
    13:00 +16°C° 0 mm 7 mps 761 mmHg 73%
    14:00 +16°C° 0 mm 8 mps 760 mmHg 73%
    15:00 +15°C° 0.2 mm 7 mps 759 mmHg 76%
    16:00 +15°C° 0.2 mm 7 mps 759 mmHg 80%
    17:00 +14°C° 0.2 mm 7 mps 759 mmHg 84%
    18:00 +14°C° 0.4 mm 7 mps 759 mmHg 86%
    19:00 +14°C° 0.4 mm 7 mps 758 mmHg 89%
    20:00 +14°C° 0.4 mm 7 mps 758 mmHg 91%
    21:00 +14°C° 0.6 mm 7 mps 758 mmHg 92%
    22:00 +14°C° 0.6 mm 7 mps 758 mmHg 92%
    23:00 +14°C° 0.6 mm 7 mps 757 mmHg 93%

    6 June, Saturday

    Time Temperature Precipitation Wind Pressure Humidity
    00:00 +14°C° 0.7 mm 7 mps 757 mmHg 92%
    01:00 +14°C° 0.7 mm 7 mps 757 mmHg 92%
    02:00 +14°C° 0.7 mm 7 mps 756 mmHg 91%
    03:00 +14°C° 0 mm 7 mps 756 mmHg 91%
    04:00 +14°C° 0 mm 7 mps 756 mmHg 91%
    05:00 +14°C° 0 mm 7 mps 756 mmHg 91%
    06:00 +14°C° 0 mm 7 mps 756 mmHg 91%
    07:00 +14°C° 0 mm 6 mps 756 mmHg 91%
    08:00 +14°C° 0 mm 6 mps 756 mmHg 91%
    09:00 +15°C° 0.1 mm 6 mps 757 mmHg 87%
    10:00 +15°C° 0.1 mm 6 mps 757 mmHg 83%
    11:00 +16°C° 0.1 mm 6 mps 757 mmHg 80%
    12:00 +17°C° 0 mm 5 mps 757 mmHg 76%
    13:00 +19°C° 0 mm 5 mps 756 mmHg 72%
    14:00 +20°C° 0 mm 4 mps 756 mmHg 68%
    15:00 +18°C° 0 mm 3 mps 756 mmHg 73%
    16:00 +17°C° 0 mm 3 mps 757 mmHg 79%
    17:00 +16°C° 0 mm 2 mps 757 mmHg 84%
    18:00 +15°C° 0 mm 2 mps 758 mmHg 85%
    19:00 +15°C° 0 mm 2 mps 759 mmHg 86%
    20:00 +15°C° 0 mm 2 mps 759 mmHg 86%
    21:00 +14°C° 0 mm 2 mps 760 mmHg 88%
    22:00 +14°C° 0 mm 2 mps 760 mmHg 89%
    23:00 +12°C° 0 mm 3 mps 760 mmHg 91%

    7 June, Sunday

    Time Temperature Precipitation Wind Pressure Humidity
    00:00 +13°C° 0 mm 2 mps 761 mmHg 91%
    01:00 +13°C° 0 mm 2 mps 761 mmHg 92%
    02:00 +12°C° 0 mm 2 mps 761 mmHg 93%
    03:00 +12°C° 0 mm 2 mps 761 mmHg 93%
    04:00 +12°C° 0 mm 2 mps 762 mmHg 92%
    05:00 +12°C° 0 mm 2 mps 762 mmHg 92%
    06:00 +12°C° 0 mm 2 mps 763 mmHg 91%
    07:00 +12°C° 0 mm 2 mps 763 mmHg 89%
    08:00 +12°C° 0 mm 2 mps 764 mmHg 87%
    09:00 +14°C° 0 mm 1 mps 764 mmHg 81%
    10:00 +16°C° 0 mm 1 mps 764 mmHg 74%
    11:00 +19°C° 0 mm 1 mps 764 mmHg 67%
    12:00 +19°C° 0 mm 1 mps 764 mmHg 64%
    13:00 +20°C° 0 mm 1 mps 763 mmHg 62%
    14:00 +21°C° 0 mm 1 mps 763 mmHg 59%
    15:00 +19°C° 0 mm 1 mps 763 mmHg 65%
    16:00 +17°C° 0 mm 2 mps 763 mmHg 71%
    17:00 +15°C° 0 mm 2 mps 763 mmHg 77%
    18:00 +14°C° 0 mm 2 mps 764 mmHg 80%
    19:00 +13°C° 0 mm 3 mps 764 mmHg 83%
    20:00 +12°C° 0 mm 3 mps 764 mmHg 86%
    21:00 +12°C° 0 mm 3 mps 764 mmHg 86%
    22:00 +12°C° 0 mm 3 mps 764 mmHg 87%
    23:00 +12°C° 0 mm 3 mps 764 mmHg 87%

    8 June, Monday

    Time Temperature Precipitation Wind Pressure Humidity
    00:00 +12°C° 0 mm 3 mps 764 mmHg 88%
    01:00 +11°C° 0 mm 3 mps 763 mmHg 89%
    02:00 +11°C° 0 mm 3 mps 763 mmHg 90%
    03:00 +11°C° 0 mm 3 mps 763 mmHg 91%
    04:00 +12°C° 0 mm 2 mps 763 mmHg 91%
    05:00 +12°C° 0 mm 2 mps 763 mmHg 92%
    06:00 +12°C° 0 mm 2 mps 763 mmHg 91%
    07:00 +12°C° 0 mm 3 mps 763 mmHg 91%
    08:00 +12°C° 0 mm 3 mps 763 mmHg 90%
    09:00 +13°C° 0 mm 3 mps 763 mmHg 84%
    10:00 +16°C° 0 mm 3 mps 763 mmHg 77%
    11:00 +17°C° 0 mm 3 mps 762 mmHg 70%
    12:00 +18°C° 0 mm 3 mps 762 mmHg 68%
    13:00 +18°C° 0 mm 2 mps 761 mmHg 66%
    14:00 +18°C° 0 mm 2 mps 760 mmHg 63%
    15:00 +17°C° 0 mm 2 mps 760 mmHg 69%
    16:00 +16°C° 0 mm 2 mps 760 mmHg 75%
    17:00 +14°C° 0 mm 2 mps 759 mmHg 80%
    18:00 +14°C° 0 mm 2 mps 759 mmHg 82%
    19:00 +13°C° 0 mm 3 mps 759 mmHg 84%
    20:00 +13°C° 0 mm 3 mps 759 mmHg 86%
    21:00 +12°C° 0 mm 3 mps 759 mmHg 87%
    22:00 +12°C° 0 mm 3 mps 759 mmHg 89%
    23:00 +12°C° 0 mm 3 mps 759 mmHg 90%
    Show more